| time (UTC) | temp F | wind direction | speed MPH | gust MPH | rain 1hr in | rain 24hr in | rain mn in | humidity % | barometer mb |
| 20260509191559 | 83 | 301 | 2.0 | 12.0 | 0.00 | 0.00 | 0.00 | 13 | 1004.6 |
| 20260509190017 | 83 | 342 | 7.0 | 10.0 | 0.00 | 0.00 | 0.00 | 10 | 1004.7 |
| 20260509184504 | 82 | 252 | 3.0 | 15.0 | 0.00 | 0.00 | 0.00 | 12 | 1005.0 |
| 20260509183121 | 81 | 316 | 10.0 | 14.0 | 0.00 | 0.00 | 0.00 | 13 | 1005.2 |
| 20260509181610 | 81 | 294 | 5.0 | 16.0 | 0.00 | 0.00 | 0.00 | 13 | 1005.4 |
| 20260509180111 | 80 | 325 | 8.0 | 15.0 | 0.00 | 0.00 | 0.00 | 14 | 1005.5 |
| 20260509174600 | 79 | 330 | 5.0 | 15.0 | 0.00 | 0.00 | 0.00 | 14 | 1005.6 |
| 20260509173058 | 79 | 315 | 7.0 | 12.0 | 0.00 | 0.00 | 0.00 | 15 | 1005.9 |
| 20260509171555 | 79 | 324 | 11.0 | 17.0 | 0.00 | 0.00 | 0.00 | 15 | 1005.8 |
| 20260509170059 | 78 | 324 | 9.0 | 16.0 | 0.00 | 0.00 | 0.00 | 15 | 1006.0 |
| 20260509164549 | 77 | 277 | 5.0 | 10.0 | 0.00 | 0.00 | 0.00 | 16 | 1005.9 |
| 20260509163103 | 75 | 42 | 3.0 | 7.0 | 0.00 | 0.00 | 0.00 | 21 | 1006.0 |
| 20260509161541 | 73 | 59 | 2.0 | 6.0 | 0.00 | 0.00 | 0.00 | 22 | 1006.2 |
| 20260509160038 | 72 | 61 | 0.0 | 3.0 | 0.00 | 0.00 | 0.00 | 23 | 1006.3 |
| 20260509154542 | 71 | 61 | 1.0 | 3.0 | 0.00 | 0.00 | 0.00 | 28 | 1006.4 |
| 20260509153033 | 70 | 61 | 0.0 | 3.0 | 0.00 | 0.00 | 0.00 | 26 | 1006.5 |
| 20260509151514 | 68 | 61 | 0.0 | 1.0 | 0.00 | 0.00 | 0.00 | 28 | 1006.5 |
| 20260509150056 | 66 | 61 | 0.0 | 1.0 | 0.00 | 0.00 | 0.00 | 28 | 1006.5 |
| 20260509144506 | 64 | 61 | 0.0 | 2.0 | 0.00 | 0.00 | 0.00 | 29 | 1006.6 |
| 20260509143018 | 62 | 61 | 1.0 | 3.0 | 0.00 | 0.00 | 0.00 | 31 | 1006.5 |
| 20260509141530 | 60 | 61 | 1.0 | 4.0 | 0.00 | 0.00 | 0.00 | 34 | 1006.4 |
| 20260509140023 | 58 | 42 | 0.0 | 0.0 | 0.00 | 0.00 | 0.00 | 39 | 1006.3 |
| 20260509134508 | 56 | 41 | 0.0 | 0.0 | 0.00 | 0.00 | 0.00 | 44 | 1006.3 |
| 20260509133021 | 55 | 41 | 0.0 | 0.0 | 0.00 | 0.00 | 0.00 | 42 | 1006.1 |
| 20260509131613 | 54 | 41 | 0.0 | 0.0 | 0.00 | 0.00 | 0.00 | 39 | 1006.0 |
| 20260509130005 | 54 | 41 | 0.0 | 2.0 | 0.00 | 0.00 | 0.00 | 42 | 1005.8 |
| 20260509124547 | 54 | 41 | 0.0 | 0.0 | 0.00 | 0.00 | 0.00 | 41 | 1005.8 |
| 20260509123050 | 54 | 41 | 1.0 | 2.0 | 0.00 | 0.00 | 0.00 | 41 | 1005.7 |
| 20260509121538 | 55 | 41 | 0.0 | 4.0 | 0.00 | 0.00 | 0.00 | 39 | 1005.3 |
| 20260509114558 | 56 | 41 | 2.0 | 3.0 | 0.00 | 0.00 | 0.00 | 32 | 1005.1 |
| 20260509113133 | 57 | 41 | 0.0 | 0.0 | 0.00 | 0.00 | 0.00 | 37 | 1005.0 |
| 20260509111506 | 58 | 41 | 0.0 | 4.0 | 0.00 | 0.00 | 0.00 | 30 | 1004.9 |
| 20260509110052 | 60 | 42 | 0.0 | 2.0 | 0.00 | 0.00 | 0.00 | 36 | 1004.8 |
| 20260509104557 | 60 | 5 | 0.0 | 0.0 | 0.00 | 0.00 | 0.00 | 33 | 1004.7 |
| 20260509103055 | 61 | 5 | 0.0 | 0.0 | 0.00 | 0.00 | 0.00 | 30 | 1004.5 |
| 20260509101547 | 62 | 5 | 0.0 | 2.0 | 0.00 | 0.00 | 0.00 | 28 | 1004.6 |
| 20260509100104 | 63 | 5 | 0.0 | 4.0 | 0.00 | 0.00 | 0.00 | 28 | 1004.5 |
| 20260509094551 | 64 | 5 | 2.0 | 4.0 | 0.00 | 0.00 | 0.00 | 27 | 1004.5 |
| 20260509093044 | 65 | 350 | 3.0 | 5.0 | 0.00 | 0.00 | 0.00 | 28 | 1004.5 |
| 20260509091551 | 64 | 311 | 4.0 | 8.0 | 0.00 | 0.00 | 0.00 | 28 | 1004.4 |
| 20260509090140 | 64 | 313 | 3.0 | 8.0 | 0.00 | 0.00 | 0.00 | 28 | 1004.4 |
| 20260509084541 | 63 | 337 | 1.0 | 5.0 | 0.00 | 0.00 | 0.00 | 28 | 1004.4 |
| 20260509083044 | 63 | 336 | 3.0 | 5.0 | 0.00 | 0.00 | 0.00 | 28 | 1004.4 |
| 20260509081539 | 61 | 75 | 0.0 | 3.0 | 0.00 | 0.00 | 0.00 | 30 | 1004.3 |
| 20260509080045 | 61 | 76 | 0.0 | 1.0 | 0.00 | 0.00 | 0.00 | 34 | 1004.3 |
| 20260509074538 | 62 | 75 | 0.0 | 2.0 | 0.00 | 0.00 | 0.00 | 31 | 1004.1 |
| 20260509073036 | 62 | 75 | 0.0 | 2.0 | 0.00 | 0.00 | 0.00 | 31 | 1004.0 |
| 20260509071529 | 64 | 75 | 0.0 | 3.0 | 0.00 | 0.00 | 0.00 | 32 | 1004.2 |
| 20260509070025 | 64 | 76 | 2.0 | 3.0 | 0.00 | 0.00 | 0.00 | 26 | 1004.2 |
| 20260509064529 | 66 | 74 | 1.0 | 4.0 | 0.00 | 0.00 | 0.00 | 24 | 1004.2 |
| 20260509063018 | 67 | 33 | 0.0 | 3.0 | 0.00 | 0.00 | 0.00 | 24 | 1004.2 |
| 20260509061532 | 68 | 33 | 3.0 | 6.0 | 0.00 | 0.00 | 0.00 | 23 | 1004.4 |
| 20260509060046 | 69 | 318 | 1.0 | 4.0 | 0.00 | 0.00 | 0.00 | 25 | 1004.6 |
| 20260509054555 | 70 | 315 | 1.0 | 4.0 | 0.00 | 0.00 | 0.00 | 23 | 1004.6 |
| 20260509053056 | 70 | 313 | 1.0 | 4.0 | 0.00 | 0.00 | 0.00 | 21 | 1004.6 |
| 20260509051551 | 71 | 336 | 0.0 | 2.0 | 0.00 | 0.00 | 0.00 | 22 | 1004.4 |
| 20260509050044 | 72 | 336 | 1.0 | 4.0 | 0.00 | 0.00 | 0.00 | 21 | 1004.5 |
| 20260509044644 | 73 | 336 | 0.0 | 4.0 | 0.00 | 0.00 | 0.00 | 19 | 1004.6 |
| 20260509043043 | 75 | 335 | 2.0 | 9.0 | 0.00 | 0.00 | 0.00 | 20 | 1004.5 |
| 20260509041542 | 76 | 312 | 5.0 | 10.0 | 0.00 | 0.00 | 0.00 | 20 | 1004.4 |
| 20260509040043 | 76 | 334 | 7.0 | 13.0 | 0.00 | 0.00 | 0.00 | 20 | 1004.1 |
| 20260509034542 | 76 | 330 | 4.0 | 6.0 | 0.00 | 0.00 | 0.00 | 19 | 1003.9 |
| 20260509033039 | 76 | 335 | 4.0 | 9.0 | 0.00 | 0.00 | 0.00 | 19 | 1003.6 |
| 20260509031539 | 78 | 342 | 3.0 | 8.0 | 0.00 | 0.00 | 0.00 | 18 | 1003.3 |
| 20260509030039 | 78 | 347 | 7.0 | 13.0 | 0.00 | 0.00 | 0.00 | 17 | 1003.0 |
| 20260509024538 | 79 | 345 | 8.0 | 11.0 | 0.00 | 0.00 | 0.00 | 17 | 1002.7 |
| 20260509023039 | 80 | 334 | 9.0 | 14.0 | 0.00 | 0.00 | 0.00 | 16 | 1002.3 |
| 20260509021608 | 81 | 331 | 4.0 | 8.0 | 0.00 | 0.00 | 0.00 | 14 | 1002.1 |
| 20260509020005 | 82 | 342 | 4.0 | 12.0 | 0.00 | 0.00 | 0.00 | 13 | 1001.9 |
| 20260509014533 | 83 | 323 | 5.0 | 12.0 | 0.00 | 0.00 | 0.00 | 13 | 1001.7 |
| 20260509013016 | 84 | 337 | 6.0 | 15.0 | 0.00 | 0.00 | 0.00 | 13 | 1001.5 |
| 20260509011516 | 85 | 360 | 4.0 | 17.0 | 0.00 | 0.00 | 0.00 | 13 | 1001.6 |
| 20260509010023 | 85 | 293 | 4.0 | 14.0 | 0.00 | 0.00 | 0.00 | 13 | 1001.5 |
| 20260509004528 | 86 | 336 | 4.0 | 11.0 | 0.00 | 0.00 | 0.00 | 13 | 1001.5 |
| 20260509003013 | 86 | 13 | 5.0 | 9.0 | 0.00 | 0.00 | 0.00 | 12 | 1001.6 |
| 20260509001512 | 86 | 9 | 5.0 | 14.0 | 0.00 | 0.00 | 0.00 | 12 | 1001.6 |
| 20260509000009 | 87 | 319 | 7.0 | 10.0 | 0.00 | 0.00 | 0.00 | 13 | 1001.7 |
| 20260508233109 | 86 | 5 | 7.0 | 13.0 | 0.00 | 0.00 | 0.00 | 12 | 1001.9 |
| 20260508231510 | 85 | 330 | 4.0 | 11.0 | 0.00 | 0.00 | 0.00 | 13 | 1002.1 |
| 20260508230112 | 84 | 340 | 2.0 | 9.0 | 0.00 | 0.00 | 0.00 | 13 | 1002.2 |
| 20260508224529 | 84 | 340 | 8.0 | 16.0 | 0.00 | 0.00 | 0.00 | 13 | 1002.3 |
| 20260508223036 | 85 | 336 | 9.0 | 16.0 | 0.00 | 0.00 | 0.00 | 12 | 1002.4 |
| 20260508221522 | 86 | 40 | 1.0 | 14.0 | 0.00 | 0.00 | 0.00 | 11 | 1002.7 |
| 20260508220024 | 86 | 342 | 2.0 | 10.0 | 0.00 | 0.00 | 0.00 | 12 | 1002.9 |
| 20260508214526 | 85 | 227 | 3.0 | 14.0 | 0.00 | 0.00 | 0.00 | 13 | 1003.2 |
| 20260508213000 | 87 | 360 | 8.0 | 14.0 | 0.00 | 0.00 | 0.00 | 12 | 1003.4 |
| 20260508211602 | 87 | 290 | 2.0 | 8.0 | 0.00 | 0.00 | 0.00 | 12 | 1003.5 |
| 20260508210009 | 86 | 295 | 4.0 | 14.0 | 0.00 | 0.00 | 0.00 | 14 | 1003.9 |
| 20260508204524 | 85 | 312 | 6.0 | 13.0 | 0.00 | 0.00 | 0.00 | 13 | 1004.1 |
| 20260508203027 | 85 | 9 | 6.0 | 13.0 | 0.00 | 0.00 | 0.00 | 14 | 1004.6 |
| 20260508201504 | 85 | 196 | 5.0 | 17.0 | 0.00 | 0.00 | 0.00 | 14 | 1004.8 |
| 20260508200002 | 85 | 263 | 4.0 | 13.0 | 0.00 | 0.00 | 0.00 | 16 | 1005.1 |
| 20260508194600 | 84 | 241 | 4.0 | 13.0 | 0.00 | 0.00 | 0.00 | 15 | 1005.3 |
| 20260508193157 | 84 | 262 | 3.0 | 12.0 | 0.00 | 0.00 | 0.00 | 16 | 1005.5 |